Location: Newark
(40.4667°N, 5.6000°W)
Time: 16:51:06
(UTC+00:00)

Vanguard 1 Rocket - Visible Passes

Search period start: 20 November 2019 00:00
Search period end: 30 November 2019 00:00
Orbit: 651 x 4226 km, 34.3° (Epoch: 19 November)

Date Brightness Start Highest point End Pass type
(mag) Time Alt. Az. Time Alt. Az. Time Alt. Az.
20 Nov 7.7 05:28:12 29° SW 05:30:00 43° S 05:35:37 10° ESE visible
21 Nov 8.5 04:21:06 27° SE 04:21:06 27° SE 04:23:54 10° ESE visible
21 Nov 8.4 06:39:22 10° WSW 06:43:47 36° S 06:50:19 10° SE visible
22 Nov 7.8 05:31:18 29° SW 05:33:00 39° S 05:38:21 10° ESE visible
23 Nov 8.5 04:24:11 27° SE 04:24:11 27° SE 04:26:50 10° ESE visible
23 Nov 8.7 06:42:39 10° WSW 06:46:47 28° SSW 06:52:34 10° SE visible
24 Nov 7.9 05:34:22 26° SW 05:35:59 34° S 05:40:59 10° SE visible
25 Nov 8.5 04:27:15 26° SE 04:27:15 26° SE 04:29:43 10° ESE visible
25 Nov 8.9 06:46:06 10° WSW 06:49:46 22° SSW 06:54:34 10° SSE visible
26 Nov 8.1 05:37:27 23° SW 05:38:57 28° SSW 05:43:29 10° SE visible
27 Nov 8.6 04:30:21 23° SE 04:30:21 23° SE 04:32:32 10° ESE visible
27 Nov 9.0 06:49:57 10° WSW 06:52:44 15° SSW 06:56:05 10° SSE visible
28 Nov 8.3 05:40:32 19° SW 05:41:54 21° SSW 05:45:46 10° SSE visible
29 Nov 8.8 04:33:27 20° SSE 04:33:27 20° SSE 04:35:15 10° SE visible
